Weather History for Johnstown, PA

Change the Weather History Date:

Sunday, February 26, 2012

  Actual Average Record
Temperature  
Mean Temperature 28 °F 30 °F  
Max Temperature 35 °F 37 °F 67 °F (1957)
Min Temperature 21 °F 22 °F -7 °F (1900)
Degree Days  
Heating Degree Days 37 36  
Month to date heating degree days 992  
Since 1 July heating degree days 4809  
Cooling Degree Days 0 0  
Month to date cooling degree days 0  
Year to date cooling degree days 0  
Moisture  
Dew Point 17 °F    
Average Humidity 69    
Maximum Humidity 93    
Minimum Humidity 45    
Precipitation  
Precipitation 0.00 in 0.08 in 1.39 in (1912)
Month to date precipitation 2.17  
Year to date precipitation 5.05  
Sea Level Pressure  
Sea Level Pressure 30.34 in    
Wind  
Wind Speed 12 mph (WSW)    
Max Wind Speed 18 mph    
Max Gust Speed 28 mph    
Visibility 8 miles    
Events Snow    
T = Trace of Precipitation, MM = Missing Value Source: NWS Daily Summary

Daily Weather History Graph

Daily Weather History Graph

Search for Another Location

Airport:

Trip Planner

Search our weather history database for the weather conditions in past years. The results will help you decide how hot, cold, wet, or windy it might be!

Date:

Astronomy

Feb. 26, 2012 Rise Set
Actual Time 6:54 AM EST 6:02 PM EST
Civil Twilight 6:26 AM EST 6:30 PM EST
Nautical Twilight 5:55 AM EST 7:02 PM EST
Astronomical Twilight 5:23 AM EST 7:33 PM EST
Moon 8:47 AM EST (2/26) 10:59 PM EST (2/26)
Length of Visible Light 12h 03m
Length of Day
11h 08m
Waxing Crescent, 20% of the Moon is Illuminated
Feb 26
Waxing Crescent
Feb 29
First Quarter
Mar 8
Full
Mar 14
Last Quarter
Mar 22
New

Hourly Weather History & Observations

Time (EST) Temp. Windchill Dew Point Humidity Pressure Visibility Wind Dir Wind Speed Gust Speed Precip Events Conditions
12:19 AM 21.2 °F 6.4 °F 19.4 °F 93% 30.18 in 1.8 mi West 18.4 mph 25.3 mph 0.00 in Snow Light Snow
12:43 AM 21.2 °F 6.8 °F 19.4 °F 93% 30.18 in 2.0 mi West 17.3 mph 26.5 mph 0.00 in Snow Light Snow
12:54 AM 21.9 °F 7.8 °F 19.9 °F 92% 30.29 in 2.0 mi WNW 17.3 mph 27.6 mph 0.00 in Snow Light Snow
1:21 AM 21.2 °F 6.8 °F 19.4 °F 93% 30.19 in 4.0 mi West 17.3 mph 27.6 mph 0.00 in Snow Light Snow
1:54 AM 21.2 °F 7.8 °F 19.4 °F 93% 30.21 in 3.0 mi West 15.0 mph 24.2 mph N/A Snow Light Snow
2:26 AM 21.2 °F 10.1 °F 19.4 °F 93% 30.22 in 5.0 mi West 10.4 mph 20.7 mph 0.00 in Snow Light Snow
2:54 AM 21.9 °F 8.7 °F 18.0 °F 85% 30.32 in 8.0 mi West 15.0 mph 20.7 mph 0.00 in Snow Light Snow
3:54 AM 23.0 °F 12.4 °F 17.6 °F 80% 30.24 in 8.0 mi West 10.4 mph 18.4 mph N/A Snow Light Snow
4:54 AM 23.0 °F 14.7 °F 16.0 °F 74% 30.36 in 10.0 mi Variable 6.9 mph 17.3 mph 0.00 in   Overcast
5:54 AM 21.9 °F 11.0 °F 15.1 °F 75% 30.38 in 10.0 mi West 10.4 mph - 0.00 in   Overcast
6:54 AM 21.2 °F 9.5 °F 15.8 °F 80% 30.30 in 10.0 mi WNW 11.5 mph - N/A   Overcast
7:54 AM 21.9 °F 12.5 °F 17.1 °F 82% 30.44 in 4.0 mi WNW 8.1 mph - 0.00 in Snow Light Snow
8:54 AM 21.9 °F 11.7 °F 16.0 °F 78% 30.45 in 4.0 mi WNW 9.2 mph - 0.00 in Snow Light Snow
9:54 AM 24.1 °F 16.0 °F 16.0 °F 71% 30.45 in 10.0 mi WNW 6.9 mph - 0.00 in   Overcast
10:54 AM 25.0 °F 19.3 °F 16.0 °F 69% 30.46 in 10.0 mi Variable 4.6 mph - N/A   Overcast
11:54 AM 26.1 °F - 15.1 °F 63% 30.45 in 10.0 mi Calm Calm - N/A   Scattered Clouds
12:54 PM 28.0 °F - 16.0 °F 61% 30.43 in 10.0 mi Calm Calm - N/A   Clear
1:54 PM 30.0 °F 21.7 °F 17.1 °F 59% 30.40 in 10.0 mi South 9.2 mph - N/A   Clear
2:54 PM 32.0 °F - 17.1 °F 54% 30.38 in 10.0 mi Calm Calm - N/A   Clear
3:54 PM 33.1 °F 30.0 °F 17.1 °F 52% 30.37 in 10.0 mi South 3.5 mph - N/A   Clear
4:54 PM 35.1 °F 31.0 °F 16.0 °F 46% 30.36 in 10.0 mi South 4.6 mph - N/A   Clear
5:54 PM 34.0 °F 31.0 °F 16.0 °F 48% 30.36 in 10.0 mi SE 3.5 mph - N/A   Clear
6:54 PM 32.0 °F 26.4 °F 17.1 °F 54% 30.37 in 10.0 mi SE 5.8 mph - N/A   Clear
7:54 PM 30.9 °F 24.3 °F 16.0 °F 54% 30.36 in 10.0 mi SSE 6.9 mph - N/A   Clear
8:54 PM 30.9 °F 22.2 °F 15.1 °F 52% 30.35 in 10.0 mi SSE 10.4 mph - N/A   Clear
9:54 PM 32.0 °F 23.6 °F 14.0 °F 48% 30.35 in 10.0 mi SSE 10.4 mph - N/A   Clear
10:54 PM 32.0 °F 27.5 °F 12.9 °F 45% 30.33 in 10.0 mi SSW 4.6 mph - N/A   Clear
11:54 PM 30.9 °F 25.2 °F 14.0 °F 50% 30.32 in 10.0 mi SSW 5.8 mph - N/A   Clear